Home   Weather   Aschaffenburg   Past weeks

Flag for Germany Past Weather in Aschaffenburg, Bavaria, Germany — Yesterday and Last 2 Weeks

Now
30 °F

Ice fog.


Feels Like: 23 °F
Forecast: 26 / 39 °F
Wind: 7 mph from Southwest

Location: Frankfurt-M-Flughafen Airport

Current Time: Dec 8, 2016 at 3:12:06 pm

Latest Report: Dec 8, 2016 at 2:20 pm


Visibility: 1 mi

Pressure: 30.48 "Hg

Humidity: 100%

Dew Point: 30 °F

Location of AschaffenburgLocation

Past Weather in Aschaffenburg — Graph

°F

Aschaffenburg Temperature Yesterday

Maximum temperature yesterday: 30 °F (at 1:50 am)
Minimum temperature yesterday: 28 °F (at 12:20 am)
Average temperature yesterday: 29 °F

High & Low Weather Summary for the Past Weeks

 TemperatureHumidityPressure
High57 °F (Nov 24, 1:50 pm)100% (Nov 27, 4:20 am)30.60 "Hg (Nov 27, 4:20 am)
Low18 °F (Nov 30, 8:20 am)48% (Nov 28, 2:20 pm)30.01 "Hg (Nov 24, 12:20 am)
Average36 °F82%30.31 "Hg
* Reported Nov 23 1:20 pm — Dec 8 1:50 pm, Aschaffenburg, Weather by CustomWeather, © 2016

Note: Actual official high and low records may vary slightly from our data, if they occured in-between our weather recording intervals... More about our weather records

Advertising

Aschaffenburg Weather History for the Previous 24 Hours

Scroll right to see more
 ConditionsComfort  
Time TempWeatherWind HumidityBarometerVisibility
1:50 pm
Thu, Dec 8
30 °FIce fog.6 mph100%30.48 "Hg1 mi
1:20 pm30 °FIce fog.7 mph100%30.48 "Hg1 mi
12:50 pm30 °FIce fog.7 mph100%30.51 "Hg1 mi
12:20 pm30 °FIce fog.7 mph100%30.51 "Hg0 mi
11:50 am30 °FIce fog.7 mph100%30.51 "Hg0 mi
11:20 am30 °FIce fog.8 mph100%30.54 "Hg1 mi
10:50 am30 °FChilly.8 mph100%30.54 "Hg1 mi
10:20 am30 °FIce fog.8 mph100%30.57 "Hg1 mi
9:50 am30 °FIce fog.6 mph100%30.57 "Hg1 mi
9:20 am30 °FIce fog.5 mph100%30.57 "Hg0 mi
8:50 am30 °FIce fog.6 mph100%30.57 "Hg0 mi
8:20 am30 °FIce fog.3 mph100%30.57 "Hg1 mi
7:50 am30 °FIce fog.9 mph100%30.54 "Hg1 mi
7:20 am30 °FIce fog.9 mph93%30.54 "Hg1 mi
6:50 am30 °FIce fog.7 mph93%30.54 "Hg1 mi
6:20 am30 °FIce fog.8 mph100%30.54 "Hg0 mi
5:50 am30 °FIce fog.8 mph93%30.54 "Hg1 mi
5:20 am30 °FIce fog.7 mph93%30.54 "Hg0 mi
4:50 am30 °FIce fog.5 mph93%30.54 "Hg0 mi
4:20 am30 °FSnow flurries. Ice fog.7 mph100%30.54 "Hg0 mi
3:50 am30 °FIce fog.3 mph100%30.57 "Hg0 mi
3:20 am30 °FIce fog.7 mph100%30.57 "Hg0 mi
2:50 am30 °FIce fog.8 mph100%30.57 "Hg1 mi
2:20 am30 °FIce fog.7 mph100%30.57 "Hg1 mi
1:50 am30 °FIce fog.6 mph100%30.57 "Hg1 mi
1:20 am30 °FIce fog.7 mph100%30.57 "Hg1 mi
12:50 am30 °FIce fog.8 mph100%30.57 "Hg1 mi
12:20 am30 °FIce fog.7 mph100%30.57 "Hg1 mi
11:50 pm
Wed, Dec 7
30 °FIce fog.6 mph100%30.57 "Hg1 mi
11:20 pm30 °FIce fog.5 mph100%30.57 "Hg1 mi
10:50 pm30 °FIce fog.6 mph100%30.57 "Hg0 mi
10:20 pm30 °FIce fog.3 mph100%30.57 "Hg0 mi
9:50 pm30 °FIce fog.3 mph100%30.60 "Hg0 mi
9:20 pm30 °FIce fog.3 mph100%30.57 "Hg1 mi
8:50 pm30 °FIce fog.3 mph100%30.60 "Hg1 mi
8:20 pm30 °FIce fog.3 mph100%30.60 "Hg1 mi
7:50 pm30 °FIce fog.3 mph100%30.57 "Hg1 mi
7:20 pm30 °FIce fog.5 mph93%30.57 "Hg1 mi
6:50 pm30 °FIce fog.5 mph93%30.57 "Hg2 mi
6:20 pm30 °FIce fog.5 mph93%30.57 "Hg2 mi
5:50 pm30 °FIce fog.5 mph93%30.57 "Hg2 mi
5:20 pm30 °FIce fog.5 mph93%30.57 "Hg2 mi
4:50 pm30 °FIce fog.2 mph93%30.57 "Hg2 mi
4:20 pm30 °FIce fog.1 mph93%30.57 "Hg2 mi
3:20 pm30 °FIce fog.3 mph93%30.57 "Hg2 mi
Weather by CustomWeather, © 2016

See weather overviewHow to use our weather pages